User: anonymous   Login
Location: Sundre
(51.7972°N, 114.6405°W)
Time: 15:14:54
(UTC-07:00)
Language:

DIWATA 2B (PO-101) - Orbit

View from above orbital plane
View from above orbital plane
View from above satellite
View from above satellite

Ground track
Ground track

The orbit data is extracted from the following two-line orbital elements,

1 43678U 18084H   20028.53367830 -.00000371  00000-0 -31279-4 0  9995
2 43678  97.8689 147.1050 0008561 286.7240  73.3039 14.91597270 68019
Epoch (UTC): 28 January 2020 12:48:29
Eccentricity: 0.0008561
inclination: 97.8689°
perigee height: 587 km
apogee height: 599 km
right ascension of ascending node: 147.1050°
argument of perigee: 286.7240°
revolutions per day: 14.91597270
mean anomaly at epoch: 73.3039°
orbit number at epoch: 6801

The dashed part of the orbit path shows where the satellite is in the earth's shadow,  

DLR